SCP
0 0 0 0 0 -0 -0 -0 -0 -0 -0 -0 -0 -0 -0 -0 -0 -0 0 0 -0 0 0 -0 -0 0 0 0 0 0 -0 0 0 0 0 0 0 0 0 0 0 -0 0 0 -0
0 0 0 0 0 0 -0 -0 -0 -0 -0 -0 -0 -0 -0 -0 0 0 0 -0 -0 -0 0 -0 -0 -0 -0 0 0 0 0 0 0 0 0 0 0 0 0 0 0 0 0 -0 -0
0 0 0 0 0 0 0 0 -0 -0 -0 -0 -0 -0 -0 -0 0 0 -0 -0 -0 0 -0 -0 -0 -0 0 0 0 0 0 -0 -0 0 0 -0 0 0 0 0 0 -0 0 0 -0
-0 0 0 0 0 0 0 0 0 -0 -0 -0 -0 -0 -0 0 -0 0 -0 -0 -0 0 -0 -0 0 0 0 -0 -0 0 0 -0 -0 0 0 -0 0 0 0 0 0 -0 -0 0 0
-0 -0 -0 0 0 0 0 0 0 0 -0 -0 -0 -0 0 0 0 0 -0 -0 0 0 0 -0 0 0 0 0 -0 0 0 0 0 0 0 0 0 0 -0 0 0 0 -0 0 0
-0 -0 -0 -0 0 0 0 0 0 0 0 0 -0 -0 0 0 0 0 -0 0 0 0 0 -0 -0 0 0 -0 0 -0 -0 0 0 0 0 -0 0 -0 0 -0 -0 -0 -0 -0 0
-0 -0 -0 -0 -0 0 0 0 0 0 0 0 0 0 0 0 0 0 0 0 0 0 0 0 0 0 0 -0 0 -0 -0 -0 0 -0 -0 -0 0 0 -0 -0 -0 -0 -0 0 -0
-0 -0 -0 -0 -0 -0 0 0 0 0 0 0 0 0 0 0 0 0 0 0 0 0 0 0 0 0 0 -0 0 0 -0 0 -0 -0 0 0 -0 0 -0 -0 -0 -0 -0 -0 0
-0 -0 -0 -0 -0 -0 -0 0 -0 -0 -0 0 0 0 0 0 0 0 0 0 0 0 0 0 0 0 0 0 0 0 0 0 0 0 -0 -0 0 0 -0 -0 -0 -0 -0 -0 0
-0 -0 -0 -0 -0 -0 -0 -0 -0 -0 -0 -0 0 0 0 0 0 0 0 0 0 0 0 0 0 0 0 0 0 0 0 0 0 0 0 0 -0 0 -0 -0 -0 -0 -0 -0 -0
-0 -0 -0 -0 -0 -0 0 0 0 0 0 0 0 0 0 0 0 0 0 0 0 0 0 0 0 0 0 0 0 0 0 0 0 0 0 -0 -0 0 -0 -0 -0 -0 -0 -0 -0
-0 -0 -0 -0 -0 0 0 0 0 0 0 0 0 0 0 -0 0 0 0 0 0 0 0 0 0 0 0 0 0 0 0 0 0 0 0 0 0 0 -0 -0 -0 -0 -0 -0 -0
-0 -0 -0 -0 -0 0 0 0 0 0 0 0 0 0 0 0 0 0 0 0 0 0 0 0 0 0 0 0 0 0 0 0 0 0 0 0 0 0 0 0 0 0 0 -0 -0
-0 -0 -0 -0 0 0 0 0 0 0 0 0 0 0 0 0 0 -0 -0 0 0 0 0 0 0 0 0 0 0 0 0 0 0 0 0 0 0 0 0 0 0 -0 0 0 -0
-0 -0 -0 0 0 0 0 0 0 0 0 0 0 -0 0 0 0 0 0 0 0 0 0 0 0 0 0 0 0 0 0 0 0 0 0 0 0 0 0 0 0 -0 -0 -0 -0
-0 -0 -0 0 0 -0 0 0 0 0 0 0 0 0 0 0 0 0 0 0 0 0 0 0 0 0 0 0 0 0 0 0 0 0 0 0 0 -0 0 0 0 0 -0 -0 -0
-0 0 0 0 0 0 0 0 0 0 0 0 0 0 0 0 0 0 0 0 0 0 0 0 0 0 0 0 0 0 0 0 0 0 0 0 0 0 0 0 0 0 0 -0 -0
-0 0 0 0 0 0 0 0 0 0 0 0 0 0 0 0 0 0 0 0 0 0 0 0 0 0 0 -0 0 0 0 0 0 0 0 0 0 0 0 0 0 0 0 0 0
0 0 0 0 0 0 0 0 0 0 0 0 0 0 0 0 0 0 0 0 0 0 0 0 0 0 0 0 0 0 0 0 0 0 0 0 0 0 0 0 0 0 0 0 0
0 0 0 0 0 0 0 0 0 0 0 0 0 0 0 0 0 0 0 0 0 0 0 -0 0 0 -0 0 0 0 0 0 0 0 0 0 0 0 0 0 0 0 0 0 0
0 0 0 0 0 0 0 0 0 0 0 0 0 0 0 0 0 0 0 0 0 0 0 0 0 0 0 0 0 0 0 0 0 0 0 0 0 0 0 0 0 0 0 0 0
0 0 0 0 0 0 0 0 0 0 0 0 0 0 0 0 0 0 0 0 0 0 0 0 0 0 0 0 0 0 0 0 0 0 0 0 0 0 0 0 0 0 0 1 0
0 0 0 0 0 0 0 0 0 0 0 0 0 0 0 0 0 0 0 0 0 0 0 0 0 0 0 0 0 0 0 0 0 0 0 0 0 0 0 0 0 0 0 0 1
0 0 0 0 0 0 0 0 0 0 0 0 0 0 0 0 0 0 0 0 0 0 0 0 0 0 0 0 0 0 0 0 0 0 0 0 -0 0 0 0 0 0 0 0 0
0 0 0 0 0 0 0 0 0 0 0 0 0 0 0 0 0 0 0 0 0 0 0 0 0 0 0 0 0 0 0 0 0 0 0 0 0 0 0 0 0 -0 0 0 0
0 0 0 0 0 0 0 0 0 0 0 0 0 0 0 0 0 0 0 0 0 0 0 0 0 0 0 0 0 0 0 0 0 0 0 0 0 0 0 -0 -0 -0 0 0 0
0 0 0 0 0 0 0 0 0 0 0 0 0 0 0 0 0 0 0 0 0 0 0 0 0 0 0 0 0 0 0 0 0 0 0 0 0 0 -0 0 -0 -0 0 0 0
Wind_Speed_500mb
19 20 20 19 19 19 19 19 20 19 20 18 16 16 14 11 13 14 11 9 10 20 23 26 24 13 13 11 9 10 8 3 3 2 5 16 7 22 2 27 3 2 44 46 52
20 19 19 18 18 17 18 17 18 19 18 17 15 13 13 9 9 9 4 8 11 12 14 14 17 10 9 7 5 6 5 8 4 4 8 13 3 15 7 18 10 35 46 51 52
21 20 19 17 16 15 15 16 16 17 16 14 12 9 8 5 4 10 3 12 12 19 9 6 9 5 5 7 1 4 0 3 14 7 5 6 11 7 27 6 20 60 59 56 52
24 23 21 17 15 14 13 14 15 14 14 12 7 5 5 9 11 7 14 16 18 20 14 9 10 5 7 10 14 3 7 7 6 10 3 5 5 2 33 8 39 58 59 58 53
25 25 23 18 15 13 12 13 14 13 11 10 3 1 6 8 7 6 10 12 10 10 9 7 9 4 4 4 17 3 13 7 10 12 12 13 6 9 42 1 47 56 57 55 52
27 26 25 22 17 13 12 12 14 13 9 8 4 4 7 9 17 13 17 15 10 6 2 7 2 11 4 5 6 22 26 12 5 14 14 21 13 20 24 32 51 58 57 55 54
27 26 25 22 18 16 13 13 14 9 8 9 7 7 12 8 10 10 11 9 6 4 6 8 7 8 17 7 7 31 11 13 13 9 11 26 7 7 35 47 60 60 59 56 54
25 25 24 18 16 18 18 17 7 12 12 11 13 17 11 6 7 7 2 0 3 4 8 12 5 7 5 3 11 4 6 7 6 6 12 5 12 11 51 60 55 59 62 60 56
23 23 21 13 15 21 18 8 10 18 13 12 13 14 9 12 10 5 5 6 8 11 8 6 2 4 2 7 7 2 6 6 10 22 6 16 9 9 58 52 51 53 58 63 59
20 20 18 8 14 22 14 3 4 13 8 9 14 10 9 10 3 2 4 8 6 8 1 4 6 7 8 11 4 4 4 2 11 16 28 17 25 10 48 54 52 55 59 59 64
20 17 13 6 11 24 17 7 5 4 13 6 4 4 3 10 1 7 7 1 3 9 6 8 11 5 4 4 4 4 6 8 11 9 15 30 23 23 42 42 45 53 56 64 72
20 15 7 6 9 16 25 18 20 11 12 10 11 11 10 6 6 5 4 3 6 7 4 12 2 7 6 3 5 6 5 8 9 5 16 15 27 18 43 60 65 62 62 66 73
22 15 5 1 4 11 15 24 18 13 2 6 7 8 7 7 5 3 4 5 8 7 7 10 5 3 8 10 11 7 3 6 7 15 7 1 10 15 28 41 49 55 65 66 79
24 14 6 7 11 3 6 9 10 12 10 10 5 8 7 7 7 13 4 3 11 7 8 1 7 7 9 5 7 4 10 6 10 9 5 7 8 9 13 36 35 57 63 71 76
25 13 5 13 8 2 7 8 4 6 9 5 6 7 21 11 10 21 15 4 6 6 11 6 10 10 10 8 3 13 9 10 7 8 3 3 3 11 11 21 37 52 70 79 93
25 10 5 15 11 4 9 4 1 11 4 3 9 13 10 26 18 22 31 22 15 11 12 6 6 10 6 7 4 11 2 11 7 6 2 11 12 10 12 25 33 51 73 86 90
23 9 9 21 11 4 9 6 10 9 7 6 6 10 11 15 15 15 15 19 8 10 13 14 8 9 11 14 14 22 13 6 6 1 11 4 1 14 12 11 17 37 69 84 84
20 5 9 20 13 4 4 9 7 6 4 4 6 8 11 10 11 14 6 11 15 12 7 7 11 14 16 2 8 9 8 9 7 5 9 10 11 11 14 27 39 48 60 69 77
14 4 17 19 10 5 2 8 14 10 7 11 7 12 12 10 8 7 10 4 7 6 9 6 8 9 4 5 2 11 6 3 4 4 4 8 16 15 15 19 28 38 33 57 77
6 8 18 16 5 7 9 8 6 6 9 8 7 4 5 11 8 9 6 10 6 7 1 6 5 4 11 11 8 6 6 6 6 5 9 11 11 10 21 26 39 47 45 47 66
3 8 8 13 4 2 8 9 8 5 6 7 6 8 6 5 5 2 2 2 5 8 11 6 6 12 4 4 7 10 7 7 6 7 7 5 12 11 10 17 40 51 61 66 48
2 6 2 14 6 5 4 7 2 7 9 8 11 8 7 5 4 4 6 3 14 2 5 4 9 3 12 10 8 8 7 9 8 12 5 5 13 20 15 36 49 68 74 80 46
5 5 12 12 4 5 9 2 2 5 4 5 6 5 4 7 7 3 5 6 17 5 6 6 2 5 17 12 10 9 4 3 5 5 7 5 11 29 49 51 63 64 80 71 46
7 5 10 19 10 7 6 4 6 13 10 13 9 10 8 4 9 9 2 3 12 6 8 8 5 13 13 14 5 6 5 10 6 5 9 15 33 20 36 28 64 69 67 62 45
11 5 4 3 11 7 4 8 4 5 8 9 8 6 11 6 3 2 2 7 5 1 4 7 7 10 13 15 6 12 16 16 14 14 15 25 44 29 16 29 43 49 55 48 42
9 7 5 6 6 5 11 7 5 4 6 3 13 6 6 11 14 14 7 5 11 3 5 4 6 8 8 14 15 10 16 28 27 30 31 25 26 5 37 25 30 42 44 32 32
14 11 5 11 6 6 4 8 6 6 10 11 25 9 5 10 17 8 17 5 8 8 8 6 8 5 9 7 11 9 22 21 12 14 11 14 14 14 13 11 21 33 35 26 18
Wind_Direction_500mb
339 336 334 330 327 324 320 316 315 313 313 310 302 292 286 285 292 312 354 124 123 143 149 141 145 107 131 95 84 49 55 39 321 11 99 133 122 167 158 143 105 288 154 160 157
345 340 336 333 331 330 325 321 319 320 317 313 307 290 279 273 283 321 291 186 142 164 161 129 141 133 37 97 67 89 123 184 65 55 44 346 157 161 125 158 79 120 145 156 160
353 347 341 338 336 337 334 330 328 328 327 324 307 288 262 235 99 38 178 191 146 141 152 126 102 124 84 132 167 30 268 78 32 207 21 15 111 143 155 240 177 153 157 164 168
356 355 351 347 343 345 344 338 335 337 339 339 316 270 223 165 141 74 70 146 159 169 157 139 165 200 174 177 186 182 131 70 46 59 33 56 3 212 172 267 180 162 161 166 172
1 360 1 358 351 348 349 344 345 345 349 352 350 209 169 158 68 26 103 114 161 179 191 177 224 209 25 272 154 175 103 70 93 71 34 351 233 223 211 39 174 166 169 174 176
0 2 5 5 3 1 1 1 358 354 3 8 58 132 142 119 102 92 98 102 87 69 281 231 290 330 314 299 185 113 98 120 160 253 336 342 300 201 206 189 177 177 180 182 184
358 2 3 8 18 19 12 349 342 6 45 51 57 111 116 117 84 103 110 116 73 45 51 40 273 329 338 2 99 133 101 87 26 6 338 336 296 172 174 181 177 187 186 192 194
356 359 3 19 26 12 356 345 30 63 73 44 68 109 91 96 62 69 13 41 331 25 27 31 72 329 326 26 83 48 140 50 270 133 275 255 276 189 172 168 175 189 192 198 199
355 357 3 34 26 11 354 25 88 51 65 63 67 96 81 92 115 65 42 347 287 274 1 332 158 113 61 72 60 51 98 77 309 208 290 228 284 187 171 172 181 191 197 200 207
352 356 1 49 31 19 357 55 31 21 53 57 68 94 71 55 104 105 47 331 317 233 276 91 95 73 34 53 97 328 72 121 225 202 218 245 253 195 183 180 187 194 202 206 210
347 352 0 56 39 37 42 103 356 27 35 32 29 51 14 355 295 211 278 229 169 116 96 35 71 121 150 172 259 221 208 207 254 217 179 222 231 185 193 199 196 196 202 211 216
344 343 357 71 69 53 50 70 32 330 323 18 3 1 14 20 29 151 225 110 103 99 64 30 101 180 194 163 70 358 360 317 297 190 197 250 232 181 191 205 205 199 203 208 218
342 333 317 130 109 107 60 35 18 348 21 351 4 3 2 350 347 30 149 101 98 77 69 133 217 337 87 34 43 352 202 267 278 317 314 174 287 184 211 209 213 218 217 214 215
339 326 317 170 146 118 41 358 342 343 71 303 19 22 336 312 52 5 191 60 35 121 138 114 308 49 48 13 127 346 198 243 308 40 282 61 284 243 197 210 209 217 216 220 219
335 323 301 190 190 128 337 331 294 326 77 309 16 14 49 57 328 12 35 120 79 93 82 283 4 3 18 327 218 243 299 259 243 205 116 287 121 273 130 212 224 219 217 217 223
330 315 239 184 193 279 331 343 100 47 146 13 20 353 42 25 36 39 49 80 69 71 17 18 352 62 291 332 329 277 335 27 58 104 250 227 172 267 179 216 223 225 223 219 216
325 304 211 191 194 261 323 144 49 117 310 4 38 17 85 8 30 28 34 37 50 53 3 339 360 329 358 13 350 26 43 357 344 258 224 212 175 231 243 245 234 221 223 223 218
326 279 191 187 194 268 351 63 96 190 214 90 102 48 73 359 9 15 63 51 12 59 77 61 337 14 342 89 252 304 124 139 263 234 268 279 248 251 227 271 280 257 256 235 216
340 158 152 161 172 336 105 75 187 201 175 125 58 65 6 7 82 67 22 85 48 28 108 76 291 322 308 300 55 314 36 282 168 340 64 247 290 304 290 315 331 312 292 239 220
357 142 161 172 175 328 81 196 184 209 122 75 107 82 113 340 52 47 26 348 340 22 50 188 295 267 292 5 28 117 247 5 10 278 285 294 281 243 327 333 334 326 315 282 246
358 124 150 178 228 5 130 215 219 166 126 100 125 94 102 136 112 148 90 311 334 333 79 104 120 289 23 24 261 350 21 21 124 134 198 303 270 231 340 327 324 317 313 311 277
103 71 64 163 45 42 131 192 316 124 90 82 92 109 130 156 108 85 112 99 1 280 65 25 136 244 251 288 295 187 105 102 104 297 255 207 260 283 320 338 341 326 317 314 292
33 83 63 158 97 328 304 320 159 118 87 97 112 122 100 119 103 159 130 168 30 64 135 170 13 20 344 0 358 52 345 96 139 81 231 240 262 340 332 337 330 326 324 312 288
7 45 51 71 76 122 24 7 97 60 73 87 111 91 98 88 22 174 324 225 345 169 95 111 131 168 190 223 174 262 243 279 162 159 250 241 287 309 308 323 322 327 323 318 302
34 55 39 354 9 60 12 344 107 115 84 79 49 124 145 127 69 215 252 323 330 291 82 99 212 190 244 255 257 236 252 244 232 220 218 281 284 290 300 305 310 323 325 310 310
64 32 33 43 3 29 3 36 335 79 82 58 127 139 118 149 184 208 174 196 230 39 101 32 246 175 266 256 226 246 269 264 249 253 258 255 266 199 319 319 326 346 330 328 321
46 28 13 5 21 73 335 300 323 107 39 166 141 110 161 229 183 186 217 257 285 181 183 166 158 111 258 258 308 275 230 232 238 233 214 227 241 309 304 311 346 356 331 337 327
Wind_Speed_850mb
19 20 20 19 19 19 19 19 20 19 20 18 16 16 14 11 13 14 11 9 10 20 23 26 24 13 13 11 9 10 8 3 3 2 5 16 7 22 2 27 3 2 44 46 52
20 19 19 18 18 17 18 17 18 19 18 17 15 13 13 9 9 9 4 8 11 12 14 14 17 10 9 7 5 6 5 8 4 4 8 13 3 15 7 18 10 35 46 51 52
21 20 19 17 16 15 15 16 16 17 16 14 12 9 8 5 4 10 3 12 12 19 9 6 9 5 5 7 1 4 0 3 14 7 5 6 11 7 27 6 20 60 59 56 52
24 23 21 17 15 14 13 14 15 14 14 12 7 5 5 9 11 7 14 16 18 20 14 9 10 5 7 10 14 3 7 7 6 10 3 5 5 2 33 8 39 58 59 58 53
25 25 23 18 15 13 12 13 14 13 11 10 3 1 6 8 7 6 10 12 10 10 9 7 9 4 4 4 17 3 13 7 10 12 12 13 6 9 42 1 47 56 57 55 52
27 26 25 22 17 13 12 12 14 13 9 8 4 4 7 9 17 13 17 15 10 6 2 7 2 11 4 5 6 22 26 12 5 14 14 21 13 20 24 32 51 58 57 55 54
27 26 25 22 18 16 13 13 14 9 8 9 7 7 12 8 10 10 11 9 6 4 6 8 7 8 17 7 7 31 11 13 13 9 11 26 7 7 35 47 60 60 59 56 54
25 25 24 18 16 18 18 17 7 12 12 11 13 17 11 6 7 7 2 0 3 4 8 12 5 7 5 3 11 4 6 7 6 6 12 5 12 11 51 60 55 59 62 60 56
23 23 21 13 15 21 18 8 10 18 13 12 13 14 9 12 10 5 5 6 8 11 8 6 2 4 2 7 7 2 6 6 10 22 6 16 9 9 58 52 51 53 58 63 59
20 20 18 8 14 22 14 3 4 13 8 9 14 10 9 10 3 2 4 8 6 8 1 4 6 7 8 11 4 4 4 2 11 16 28 17 25 10 48 54 52 55 59 59 64
20 17 13 6 11 24 17 7 5 4 13 6 4 4 3 10 1 7 7 1 3 9 6 8 11 5 4 4 4 4 6 8 11 9 15 30 23 23 42 42 45 53 56 64 72
20 15 7 6 9 16 25 18 20 11 12 10 11 11 10 6 6 5 4 3 6 7 4 12 2 7 6 3 5 6 5 8 9 5 16 15 27 18 43 60 65 62 62 66 73
22 15 5 1 4 11 15 24 18 13 2 6 7 8 7 7 5 3 4 5 8 7 7 10 5 3 8 10 11 7 3 6 7 15 7 1 10 15 28 41 49 55 65 66 79
24 14 6 7 11 3 6 9 10 12 10 10 5 8 7 7 7 13 4 3 11 7 8 1 7 7 9 5 7 4 10 6 10 9 5 7 8 9 13 36 35 57 63 71 76
25 13 5 13 8 2 7 8 4 6 9 5 6 7 21 11 10 21 15 4 6 6 11 6 10 10 10 8 3 13 9 10 7 8 3 3 3 11 11 21 37 52 70 79 93
25 10 5 15 11 4 9 4 1 11 4 3 9 13 10 26 18 22 31 22 15 11 12 6 6 10 6 7 4 11 2 11 7 6 2 11 12 10 12 25 33 51 73 86 90
23 9 9 21 11 4 9 6 10 9 7 6 6 10 11 15 15 15 15 19 8 10 13 14 8 9 11 14 14 22 13 6 6 1 11 4 1 14 12 11 17 37 69 84 84
20 5 9 20 13 4 4 9 7 6 4 4 6 8 11 10 11 14 6 11 15 12 7 7 11 14 16 2 8 9 8 9 7 5 9 10 11 11 14 27 39 48 60 69 77
14 4 17 19 10 5 2 8 14 10 7 11 7 12 12 10 8 7 10 4 7 6 9 6 8 9 4 5 2 11 6 3 4 4 4 8 16 15 15 19 28 38 33 57 77
6 8 18 16 5 7 9 8 6 6 9 8 7 4 5 11 8 9 6 10 6 7 1 6 5 4 11 11 8 6 6 6 6 5 9 11 11 10 21 26 39 47 45 47 66
3 8 8 13 4 2 8 9 8 5 6 7 6 8 6 5 5 2 2 2 5 8 11 6 6 12 4 4 7 10 7 7 6 7 7 5 12 11 10 17 40 51 61 66 48
2 6 2 14 6 5 4 7 2 7 9 8 11 8 7 5 4 4 6 3 14 2 5 4 9 3 12 10 8 8 7 9 8 12 5 5 13 20 15 36 49 68 74 80 46
5 5 12 12 4 5 9 2 2 5 4 5 6 5 4 7 7 3 5 6 17 5 6 6 2 5 17 12 10 9 4 3 5 5 7 5 11 29 49 51 63 64 80 71 46
7 5 10 19 10 7 6 4 6 13 10 13 9 10 8 4 9 9 2 3 12 6 8 8 5 13 13 14 5 6 5 10 6 5 9 15 33 20 36 28 64 69 67 62 45
11 5 4 3 11 7 4 8 4 5 8 9 8 6 11 6 3 2 2 7 5 1 4 7 7 10 13 15 6 12 16 16 14 14 15 25 44 29 16 29 43 49 55 48 42
9 7 5 6 6 5 11 7 5 4 6 3 13 6 6 11 14 14 7 5 11 3 5 4 6 8 8 14 15 10 16 28 27 30 31 25 26 5 37 25 30 42 44 32 32
14 11 5 11 6 6 4 8 6 6 10 11 25 9 5 10 17 8 17 5 8 8 8 6 8 5 9 7 11 9 22 21 12 14 11 14 14 14 13 11 21 33 35 26 18
Wind_Direction_850mb
339 336 334 330 327 324 320 316 315 313 313 310 302 292 286 285 292 312 354 124 123 143 149 141 145 107 131 95 84 49 55 39 321 11 99 133 122 167 158 143 105 288 154 160 157
345 340 336 333 331 330 325 321 319 320 317 313 307 290 279 273 283 321 291 186 142 164 161 129 141 133 37 97 67 89 123 184 65 55 44 346 157 161 125 158 79 120 145 156 160
353 347 341 338 336 337 334 330 328 328 327 324 307 288 262 235 99 38 178 191 146 141 152 126 102 124 84 132 167 30 268 78 32 207 21 15 111 143 155 240 177 153 157 164 168
356 355 351 347 343 345 344 338 335 337 339 339 316 270 223 165 141 74 70 146 159 169 157 139 165 200 174 177 186 182 131 70 46 59 33 56 3 212 172 267 180 162 161 166 172
1 360 1 358 351 348 349 344 345 345 349 352 350 209 169 158 68 26 103 114 161 179 191 177 224 209 25 272 154 175 103 70 93 71 34 351 233 223 211 39 174 166 169 174 176
0 2 5 5 3 1 1 1 358 354 3 8 58 132 142 119 102 92 98 102 87 69 281 231 290 330 314 299 185 113 98 120 160 253 336 342 300 201 206 189 177 177 180 182 184
358 2 3 8 18 19 12 349 342 6 45 51 57 111 116 117 84 103 110 116 73 45 51 40 273 329 338 2 99 133 101 87 26 6 338 336 296 172 174 181 177 187 186 192 194
356 359 3 19 26 12 356 345 30 63 73 44 68 109 91 96 62 69 13 41 331 25 27 31 72 329 326 26 83 48 140 50 270 133 275 255 276 189 172 168 175 189 192 198 199
355 357 3 34 26 11 354 25 88 51 65 63 67 96 81 92 115 65 42 347 287 274 1 332 158 113 61 72 60 51 98 77 309 208 290 228 284 187 171 172 181 191 197 200 207
352 356 1 49 31 19 357 55 31 21 53 57 68 94 71 55 104 105 47 331 317 233 276 91 95 73 34 53 97 328 72 121 225 202 218 245 253 195 183 180 187 194 202 206 210
347 352 0 56 39 37 42 103 356 27 35 32 29 51 14 355 295 211 278 229 169 116 96 35 71 121 150 172 259 221 208 207 254 217 179 222 231 185 193 199 196 196 202 211 216
344 343 357 71 69 53 50 70 32 330 323 18 3 1 14 20 29 151 225 110 103 99 64 30 101 180 194 163 70 358 360 317 297 190 197 250 232 181 191 205 205 199 203 208 218
342 333 317 130 109 107 60 35 18 348 21 351 4 3 2 350 347 30 149 101 98 77 69 133 217 337 87 34 43 352 202 267 278 317 314 174 287 184 211 209 213 218 217 214 215
339 326 317 170 146 118 41 358 342 343 71 303 19 22 336 312 52 5 191 60 35 121 138 114 308 49 48 13 127 346 198 243 308 40 282 61 284 243 197 210 209 217 216 220 219
335 323 301 190 190 128 337 331 294 326 77 309 16 14 49 57 328 12 35 120 79 93 82 283 4 3 18 327 218 243 299 259 243 205 116 287 121 273 130 212 224 219 217 217 223
330 315 239 184 193 279 331 343 100 47 146 13 20 353 42 25 36 39 49 80 69 71 17 18 352 62 291 332 329 277 335 27 58 104 250 227 172 267 179 216 223 225 223 219 216
325 304 211 191 194 261 323 144 49 117 310 4 38 17 85 8 30 28 34 37 50 53 3 339 360 329 358 13 350 26 43 357 344 258 224 212 175 231 243 245 234 221 223 223 218
326 279 191 187 194 268 351 63 96 190 214 90 102 48 73 359 9 15 63 51 12 59 77 61 337 14 342 89 252 304 124 139 263 234 268 279 248 251 227 271 280 257 256 235 216
340 158 152 161 172 336 105 75 187 201 175 125 58 65 6 7 82 67 22 85 48 28 108 76 291 322 308 300 55 314 36 282 168 340 64 247 290 304 290 315 331 312 292 239 220
357 142 161 172 175 328 81 196 184 209 122 75 107 82 113 340 52 47 26 348 340 22 50 188 295 267 292 5 28 117 247 5 10 278 285 294 281 243 327 333 334 326 315 282 246
358 124 150 178 228 5 130 215 219 166 126 100 125 94 102 136 112 148 90 311 334 333 79 104 120 289 23 24 261 350 21 21 124 134 198 303 270 231 340 327 324 317 313 311 277
103 71 64 163 45 42 131 192 316 124 90 82 92 109 130 156 108 85 112 99 1 280 65 25 136 244 251 288 295 187 105 102 104 297 255 207 260 283 320 338 341 326 317 314 292
33 83 63 158 97 328 304 320 159 118 87 97 112 122 100 119 103 159 130 168 30 64 135 170 13 20 344 0 358 52 345 96 139 81 231 240 262 340 332 337 330 326 324 312 288
7 45 51 71 76 122 24 7 97 60 73 87 111 91 98 88 22 174 324 225 345 169 95 111 131 168 190 223 174 262 243 279 162 159 250 241 287 309 308 323 322 327 323 318 302
34 55 39 354 9 60 12 344 107 115 84 79 49 124 145 127 69 215 252 323 330 291 82 99 212 190 244 255 257 236 252 244 232 220 218 281 284 290 300 305 310 323 325 310 310
64 32 33 43 3 29 3 36 335 79 82 58 127 139 118 149 184 208 174 196 230 39 101 32 246 175 266 256 226 246 269 264 249 253 258 255 266 199 319 319 326 346 330 328 321
46 28 13 5 21 73 335 300 323 107 39 166 141 110 161 229 183 186 217 257 285 181 183 166 158 111 258 258 308 275 230 232 238 233 214 227 241 309 304 311 346 356 331 337 327